Year,Month,Day,Hour,Minute,Value (Times are PST for temperature in C)
2009,08,11,00,00,15.00
2009,08,11,00,01,15.00
2009,08,11,00,02,15.00
2009,08,11,00,03,15.00
2009,08,11,00,04,15.00
2009,08,11,00,05,15.00
2009,08,11,00,06,15.00
2009,08,11,00,07,15.00
2009,08,11,00,08,15.00
2009,08,11,00,09,14.90
2009,08,11,00,10,14.90
2009,08,11,00,11,14.90
2009,08,11,00,12,14.90
2009,08,11,00,13,14.90
2009,08,11,00,14,14.80
2009,08,11,00,15,14.90
2009,08,11,00,16,14.80
2009,08,11,00,17,14.80
2009,08,11,00,18,14.80
2009,08,11,00,19,14.90
2009,08,11,00,20,14.90
2009,08,11,00,21,14.90
2009,08,11,00,22,14.90
2009,08,11,00,23,14.90
2009,08,11,00,24,14.90
2009,08,11,00,25,14.90
2009,08,11,00,26,14.90
2009,08,11,00,27,14.90
2009,08,11,00,28,14.90
2009,08,11,00,29,14.90
2009,08,11,00,30,14.90
2009,08,11,00,31,14.90
2009,08,11,00,32,14.90
2009,08,11,00,33,14.90
2009,08,11,00,34,14.90
2009,08,11,00,35,15.00
2009,08,11,00,36,14.90
2009,08,11,00,37,14.90
2009,08,11,00,38,14.90
2009,08,11,00,39,14.90
2009,08,11,00,40,14.90
2009,08,11,00,41,14.90
2009,08,11,00,42,14.90
2009,08,11,00,43,14.90
2009,08,11,00,44,14.90
2009,08,11,00,45,14.90
2009,08,11,00,46,14.90
2009,08,11,00,47,14.90
2009,08,11,00,48,14.90
2009,08,11,00,49,14.90
2009,08,11,00,50,14.90
2009,08,11,00,51,14.90
2009,08,11,00,52,14.90
2009,08,11,00,53,14.90
2009,08,11,00,54,14.90
2009,08,11,00,55,14.90
2009,08,11,00,56,14.90
2009,08,11,00,57,14.90
2009,08,11,00,58,14.90
2009,08,11,00,59,14.90
2009,08,11,01,00,14.90
2009,08,11,01,01,14.90
2009,08,11,01,02,14.90
2009,08,11,01,03,15.00
2009,08,11,01,04,15.00
2009,08,11,01,05,15.00
2009,08,11,01,06,15.00
2009,08,11,01,07,15.00
2009,08,11,01,08,15.00
2009,08,11,01,09,15.00
2009,08,11,01,10,15.00
2009,08,11,01,11,15.00
2009,08,11,01,12,15.00
2009,08,11,01,13,15.00
2009,08,11,01,14,15.00
2009,08,11,01,15,15.00
2009,08,11,01,16,15.00
2009,08,11,01,17,15.00
2009,08,11,01,18,15.00
2009,08,11,01,19,15.00
2009,08,11,01,20,15.00
2009,08,11,01,21,15.00
2009,08,11,01,22,15.00
2009,08,11,01,23,15.00
2009,08,11,01,24,15.00
2009,08,11,01,25,15.00
2009,08,11,01,26,15.00
2009,08,11,01,27,15.00
2009,08,11,01,28,15.00
2009,08,11,01,29,15.00
2009,08,11,01,30,15.00
2009,08,11,01,31,15.10
2009,08,11,01,32,15.10
2009,08,11,01,33,15.10
2009,08,11,01,34,15.20
2009,08,11,01,35,15.20
2009,08,11,01,36,15.20
2009,08,11,01,37,15.20
2009,08,11,01,38,15.20
2009,08,11,01,39,15.10
2009,08,11,01,40,15.10
2009,08,11,01,41,15.10
2009,08,11,01,42,15.00
2009,08,11,01,43,15.00
2009,08,11,01,44,15.00
2009,08,11,01,45,15.00
2009,08,11,01,46,15.00
2009,08,11,01,47,15.00
2009,08,11,01,48,15.00
2009,08,11,01,49,15.00
2009,08,11,01,50,15.00
2009,08,11,01,51,15.00
2009,08,11,01,52,15.00
2009,08,11,01,53,15.00
2009,08,11,01,54,15.00
2009,08,11,01,55,15.00
2009,08,11,01,56,15.00
2009,08,11,01,57,15.00
2009,08,11,01,58,15.00
2009,08,11,01,59,15.00
2009,08,11,02,00,15.00
2009,08,11,02,01,15.00
2009,08,11,02,02,15.00
2009,08,11,02,03,15.00
2009,08,11,02,04,15.00
2009,08,11,02,05,15.00
2009,08,11,02,06,15.00
2009,08,11,02,07,15.00
2009,08,11,02,08,15.00
2009,08,11,02,09,14.90
2009,08,11,02,10,14.80
2009,08,11,02,11,14.80
2009,08,11,02,12,14.80
2009,08,11,02,13,14.80
2009,08,11,02,14,14.80
2009,08,11,02,15,14.70
2009,08,11,02,16,14.70
2009,08,11,02,17,14.70
2009,08,11,02,18,14.70
2009,08,11,02,19,14.70
2009,08,11,02,20,14.60
2009,08,11,02,21,14.60
2009,08,11,02,22,14.60
2009,08,11,02,23,14.50
2009,08,11,02,24,14.50
2009,08,11,02,25,14.40
2009,08,11,02,26,14.40
2009,08,11,02,27,14.40
2009,08,11,02,28,14.30
2009,08,11,02,29,14.30
2009,08,11,02,30,14.30
2009,08,11,02,31,14.30
2009,08,11,02,32,14.30
2009,08,11,02,33,14.30
2009,08,11,02,34,14.20
2009,08,11,02,35,14.20
2009,08,11,02,36,14.20
2009,08,11,02,37,14.20
2009,08,11,02,38,14.20
2009,08,11,02,39,14.20
2009,08,11,02,40,14.20
2009,08,11,02,41,14.20
2009,08,11,02,42,14.20
2009,08,11,02,43,14.20
2009,08,11,02,44,14.20
2009,08,11,02,45,14.20
2009,08,11,02,46,14.20
2009,08,11,02,47,14.20
2009,08,11,02,48,14.20
2009,08,11,02,49,14.20
2009,08,11,02,50,14.20
2009,08,11,02,51,14.20
2009,08,11,02,52,14.20
2009,08,11,02,53,14.20
2009,08,11,02,54,14.20
2009,08,11,02,55,14.20
2009,08,11,02,56,14.20
2009,08,11,02,57,14.20
2009,08,11,02,58,14.20
2009,08,11,02,59,14.20
2009,08,11,03,00,14.20
2009,08,11,03,01,14.20
2009,08,11,03,02,14.10
2009,08,11,03,03,14.10
2009,08,11,03,04,14.10
2009,08,11,03,05,14.10
2009,08,11,03,06,14.10
2009,08,11,03,07,14.10
2009,08,11,03,08,14.10
2009,08,11,03,09,14.10
2009,08,11,03,10,14.10
2009,08,11,03,11,14.10
2009,08,11,03,12,14.10
2009,08,11,03,13,14.10
2009,08,11,03,14,14.10
2009,08,11,03,15,14.10
2009,08,11,03,16,14.00
2009,08,11,03,17,14.00
2009,08,11,03,18,14.00
2009,08,11,03,19,14.00
2009,08,11,03,20,14.00
2009,08,11,03,21,14.00
2009,08,11,03,22,14.00
2009,08,11,03,23,14.00
2009,08,11,03,24,14.00
2009,08,11,03,25,14.00
2009,08,11,03,26,14.00
2009,08,11,03,27,14.00
2009,08,11,03,28,14.00
2009,08,11,03,29,14.00
2009,08,11,03,30,14.00
2009,08,11,03,31,14.00
2009,08,11,03,32,14.00
2009,08,11,03,33,14.00
2009,08,11,03,34,14.00
2009,08,11,03,35,14.00
2009,08,11,03,36,13.90
2009,08,11,03,37,13.90
2009,08,11,03,38,13.90
2009,08,11,03,39,13.90
2009,08,11,03,40,13.90
2009,08,11,03,41,13.90
2009,08,11,03,42,13.90
2009,08,11,03,43,13.90
2009,08,11,03,44,13.90
2009,08,11,03,45,13.90
2009,08,11,03,46,13.90
2009,08,11,03,47,13.90
2009,08,11,03,48,13.90
2009,08,11,03,49,13.90
2009,08,11,03,50,13.90
2009,08,11,03,51,13.90
2009,08,11,03,52,13.90
2009,08,11,03,53,13.90
2009,08,11,03,54,13.90
2009,08,11,03,55,13.90
2009,08,11,03,56,13.90
2009,08,11,03,57,13.90
2009,08,11,03,58,13.90
2009,08,11,03,59,13.90
2009,08,11,04,00,13.90
2009,08,11,04,01,13.90
2009,08,11,04,02,13.90
2009,08,11,04,03,13.90
2009,08,11,04,04,13.90
2009,08,11,04,05,13.90
2009,08,11,04,06,13.90
2009,08,11,04,07,13.90
2009,08,11,04,08,13.90
2009,08,11,04,09,13.90
2009,08,11,04,10,13.90
2009,08,11,04,11,14.00
2009,08,11,04,12,14.10
2009,08,11,04,13,14.10
2009,08,11,04,14,14.20
2009,08,11,04,15,14.20
2009,08,11,04,16,14.20
2009,08,11,04,17,14.30
2009,08,11,04,18,14.30
2009,08,11,04,19,14.30
2009,08,11,04,20,14.30
2009,08,11,04,21,14.30
2009,08,11,04,22,14.30
2009,08,11,04,23,14.40
2009,08,11,04,24,14.40
2009,08,11,04,25,14.40
2009,08,11,04,26,14.50
2009,08,11,04,27,14.50
2009,08,11,04,28,14.60
2009,08,11,04,29,14.60
2009,08,11,04,30,14.60
2009,08,11,04,31,14.70
2009,08,11,04,32,14.70
2009,08,11,04,33,14.80
2009,08,11,04,34,14.80
2009,08,11,04,35,14.80
2009,08,11,04,36,14.90
2009,08,11,04,37,14.90
2009,08,11,04,38,15.00
2009,08,11,04,39,15.00
2009,08,11,04,40,15.00
2009,08,11,04,41,15.00
2009,08,11,04,42,15.00
2009,08,11,04,43,15.00
2009,08,11,04,44,15.00
2009,08,11,04,45,15.00
2009,08,11,04,46,15.00
2009,08,11,04,47,15.00
2009,08,11,04,48,15.00
2009,08,11,04,49,15.00
2009,08,11,04,50,15.00
2009,08,11,04,51,15.00
2009,08,11,04,52,15.00
2009,08,11,04,53,15.00
2009,08,11,04,54,15.00
2009,08,11,04,55,15.00
2009,08,11,04,56,15.00
2009,08,11,04,57,15.00
2009,08,11,04,58,15.00
2009,08,11,04,59,15.00
2009,08,11,05,00,15.00
2009,08,11,05,01,15.00
2009,08,11,05,02,15.00
2009,08,11,05,03,14.90
2009,08,11,05,04,14.90
2009,08,11,05,05,14.80
2009,08,11,05,06,14.70
2009,08,11,05,07,14.70
2009,08,11,05,08,14.60
2009,08,11,05,09,14.60
2009,08,11,05,10,14.50
2009,08,11,05,11,14.40
2009,08,11,05,12,14.40
2009,08,11,05,13,14.30
2009,08,11,05,14,14.30
2009,08,11,05,15,14.30
2009,08,11,05,16,14.20
2009,08,11,05,17,14.20
2009,08,11,05,18,14.10
2009,08,11,05,19,14.10
2009,08,11,05,20,14.00
2009,08,11,05,21,14.00
2009,08,11,05,22,13.90
2009,08,11,05,23,13.90
2009,08,11,05,24,13.90
2009,08,11,05,25,13.80
2009,08,11,05,26,13.80
2009,08,11,05,27,13.80
2009,08,11,05,28,13.70
2009,08,11,05,29,13.70
2009,08,11,05,30,13.70
2009,08,11,05,31,13.70
2009,08,11,05,32,13.70
2009,08,11,05,33,13.70
2009,08,11,05,34,13.60
2009,08,11,05,35,13.60
2009,08,11,05,36,13.60
2009,08,11,05,37,13.60
2009,08,11,05,38,13.60
2009,08,11,05,39,13.60
2009,08,11,05,40,13.50
2009,08,11,05,41,13.50
2009,08,11,05,42,13.50
2009,08,11,05,43,13.40
2009,08,11,05,44,13.40
2009,08,11,05,45,13.40
2009,08,11,05,46,13.40
2009,08,11,05,47,13.40
2009,08,11,05,48,13.30
2009,08,11,05,49,13.30
2009,08,11,05,50,13.30
2009,08,11,05,51,13.30
2009,08,11,05,52,13.30
2009,08,11,05,53,13.30
2009,08,11,05,54,13.30
2009,08,11,05,55,13.20
2009,08,11,05,56,13.20
2009,08,11,05,57,13.20
2009,08,11,05,58,13.20
2009,08,11,05,59,13.20
2009,08,11,06,00,13.20
2009,08,11,06,01,13.20
2009,08,11,06,02,13.20
2009,08,11,06,03,13.20
2009,08,11,06,04,13.10
2009,08,11,06,05,13.10
2009,08,11,06,06,13.10
2009,08,11,06,07,13.10
2009,08,11,06,08,13.10
2009,08,11,06,09,13.10
2009,08,11,06,10,13.00
2009,08,11,06,11,13.00
2009,08,11,06,12,13.00
2009,08,11,06,13,13.00
2009,08,11,06,14,12.90
2009,08,11,06,15,12.90
2009,08,11,06,16,12.90
2009,08,11,06,17,12.90
2009,08,11,06,18,12.90
2009,08,11,06,19,12.90
2009,08,11,06,20,12.90
2009,08,11,06,21,12.80
2009,08,11,06,22,12.80
2009,08,11,06,23,12.80
2009,08,11,06,24,12.80
2009,08,11,06,25,12.80
2009,08,11,06,26,12.80
2009,08,11,06,27,12.80
2009,08,11,06,28,12.80
2009,08,11,06,29,12.80
2009,08,11,06,30,12.80
2009,08,11,06,31,12.80
2009,08,11,06,32,12.80
2009,08,11,06,33,12.80
2009,08,11,06,34,12.80
2009,08,11,06,35,12.80
2009,08,11,06,36,12.80
2009,08,11,06,37,12.70
2009,08,11,06,38,12.70
2009,08,11,06,39,12.70
2009,08,11,06,40,12.70
2009,08,11,06,41,12.70
2009,08,11,06,42,12.70
2009,08,11,06,43,12.70
2009,08,11,06,44,12.70
2009,08,11,06,45,12.70
2009,08,11,06,46,12.70
2009,08,11,06,47,12.70
2009,08,11,06,48,12.70
2009,08,11,06,49,12.70
2009,08,11,06,50,12.70
2009,08,11,06,51,12.70
2009,08,11,06,52,12.70
2009,08,11,06,53,12.70
2009,08,11,06,54,12.70
2009,08,11,06,55,12.70
2009,08,11,06,56,12.70
2009,08,11,06,57,12.70
2009,08,11,06,58,12.70
2009,08,11,06,59,12.70
2009,08,11,07,00,12.70
2009,08,11,07,01,12.70
2009,08,11,07,02,12.70
2009,08,11,07,03,12.70
2009,08,11,07,04,12.70
2009,08,11,07,05,12.70
2009,08,11,07,06,12.70
2009,08,11,07,07,12.70
2009,08,11,07,08,12.80
2009,08,11,07,09,12.80
2009,08,11,07,10,12.80
2009,08,11,07,11,12.80
2009,08,11,07,12,12.80
2009,08,11,07,13,12.80
2009,08,11,07,14,12.80
2009,08,11,07,15,12.80
2009,08,11,07,16,12.80
2009,08,11,07,17,12.80
2009,08,11,07,18,12.80
2009,08,11,07,19,12.80
2009,08,11,07,20,12.80
2009,08,11,07,21,12.80
2009,08,11,07,22,12.90
2009,08,11,07,23,12.90
2009,08,11,07,24,12.90
2009,08,11,07,25,12.90
2009,08,11,07,26,12.90
2009,08,11,07,27,12.90
2009,08,11,07,28,12.90
2009,08,11,07,29,13.00
2009,08,11,07,30,13.00
2009,08,11,07,31,13.00
2009,08,11,07,32,13.00
2009,08,11,07,33,13.10
2009,08,11,07,34,13.10
2009,08,11,07,35,13.10
2009,08,11,07,36,13.10
2009,08,11,07,37,13.10
2009,08,11,07,38,13.10
2009,08,11,07,39,13.20
2009,08,11,07,40,13.20
2009,08,11,07,41,13.20
2009,08,11,07,42,13.20
2009,08,11,07,43,13.20
2009,08,11,07,44,13.20
2009,08,11,07,45,13.20
2009,08,11,07,46,13.20
2009,08,11,07,47,13.20
2009,08,11,07,48,13.20
2009,08,11,07,49,13.20
2009,08,11,07,50,13.20
2009,08,11,07,51,13.20
2009,08,11,07,52,13.30
2009,08,11,07,53,13.30
2009,08,11,07,54,13.30
2009,08,11,07,55,13.30
2009,08,11,07,56,13.30
2009,08,11,07,57,13.30
2009,08,11,07,58,13.30
2009,08,11,07,59,13.30
2009,08,11,08,00,13.30
2009,08,11,08,01,13.30
2009,08,11,08,02,13.40
2009,08,11,08,03,13.40
2009,08,11,08,04,13.40
2009,08,11,08,05,13.40
2009,08,11,08,06,13.40
2009,08,11,08,07,13.40
2009,08,11,08,08,13.40
2009,08,11,08,09,13.40
2009,08,11,08,10,13.50
2009,08,11,08,11,13.50
2009,08,11,08,12,13.50
2009,08,11,08,13,13.50
2009,08,11,08,14,13.50
2009,08,11,08,15,13.50
2009,08,11,08,16,13.50
2009,08,11,08,17,13.50
2009,08,11,08,18,13.60
2009,08,11,08,19,13.60
2009,08,11,08,20,13.60
2009,08,11,08,21,13.60
2009,08,11,08,22,13.60
2009,08,11,08,23,13.60
2009,08,11,08,24,13.60
2009,08,11,08,25,13.60
2009,08,11,08,26,13.60
2009,08,11,08,27,13.60
2009,08,11,08,28,13.60
2009,08,11,08,29,13.60
2009,08,11,08,30,13.70
2009,08,11,08,31,13.60
2009,08,11,08,32,13.70
2009,08,11,08,33,13.70
2009,08,11,08,34,13.70
2009,08,11,08,35,13.70
2009,08,11,08,36,13.80
2009,08,11,08,37,13.80
2009,08,11,08,38,13.80
2009,08,11,08,39,13.80
2009,08,11,08,40,13.80
2009,08,11,08,41,13.80
2009,08,11,08,42,13.80
2009,08,11,08,43,13.80
2009,08,11,08,44,13.80
2009,08,11,08,45,13.90
2009,08,11,08,46,13.90
2009,08,11,08,47,13.90
2009,08,11,08,48,13.90
2009,08,11,08,49,13.90
2009,08,11,08,50,14.00
2009,08,11,08,51,14.00
2009,08,11,08,52,14.00
2009,08,11,08,53,14.10
2009,08,11,08,54,14.10
2009,08,11,08,55,14.10
2009,08,11,08,56,14.20
2009,08,11,08,57,14.20
2009,08,11,08,58,14.20
2009,08,11,08,59,14.20
2009,08,11,09,00,14.30
2009,08,11,09,01,14.30
2009,08,11,09,02,14.30
2009,08,11,09,03,14.40
2009,08,11,09,04,14.40
2009,08,11,09,05,14.40
2009,08,11,09,06,14.50
2009,08,11,09,07,14.60
2009,08,11,09,08,14.60
2009,08,11,09,09,14.60
2009,08,11,09,10,14.70
2009,08,11,09,11,14.70
2009,08,11,09,12,14.80
2009,08,11,09,13,14.80
2009,08,11,09,14,14.90
2009,08,11,09,15,15.00
2009,08,11,09,16,15.00
2009,08,11,09,17,15.00
2009,08,11,09,18,15.00
2009,08,11,09,19,15.00
2009,08,11,09,20,15.00
2009,08,11,09,21,15.10
2009,08,11,09,22,15.20
2009,08,11,09,23,15.30
2009,08,11,09,24,15.30
2009,08,11,09,25,15.40
2009,08,11,09,26,15.40
2009,08,11,09,27,15.50
2009,08,11,09,28,15.60
2009,08,11,09,29,15.60
2009,08,11,09,30,15.70
2009,08,11,09,31,15.70
2009,08,11,09,32,15.80
2009,08,11,09,33,15.80
2009,08,11,09,34,15.80
2009,08,11,09,35,15.90
2009,08,11,09,36,15.90
2009,08,11,09,37,16.00
2009,08,11,09,38,16.00
2009,08,11,09,39,16.10
2009,08,11,09,40,16.10
2009,08,11,09,41,16.20
2009,08,11,09,42,16.20
2009,08,11,09,43,16.30
2009,08,11,09,44,16.30
2009,08,11,09,45,16.30
2009,08,11,09,46,16.40
2009,08,11,09,47,16.40
2009,08,11,09,48,16.40
2009,08,11,09,49,16.50
2009,08,11,09,50,16.50
2009,08,11,09,51,16.50
2009,08,11,09,52,16.60
2009,08,11,09,53,16.60
2009,08,11,09,54,16.70
2009,08,11,09,55,16.70
2009,08,11,09,56,16.70
2009,08,11,09,57,16.70
2009,08,11,09,58,16.70
2009,08,11,09,59,16.70
2009,08,11,10,00,16.70
2009,08,11,10,01,16.70
2009,08,11,10,02,16.70
2009,08,11,10,03,16.80
2009,08,11,10,04,16.80
2009,08,11,10,05,16.80
2009,08,11,10,06,16.80
2009,08,11,10,07,16.80
2009,08,11,10,08,16.90
2009,08,11,10,09,16.90
2009,08,11,10,10,16.90
2009,08,11,10,11,17.00
2009,08,11,10,12,17.00
2009,08,11,10,13,17.00
2009,08,11,10,14,17.00
2009,08,11,10,15,17.00
2009,08,11,10,16,17.00
2009,08,11,10,17,17.10
2009,08,11,10,18,17.10
2009,08,11,10,19,17.10
2009,08,11,10,20,17.10
2009,08,11,10,21,17.10
2009,08,11,10,22,17.10
2009,08,11,10,23,17.10
2009,08,11,10,24,17.10
2009,08,11,10,25,17.10
2009,08,11,10,26,17.10
2009,08,11,10,27,17.10
2009,08,11,10,28,17.10
2009,08,11,10,29,17.10
2009,08,11,10,30,17.20
2009,08,11,10,31,17.20
2009,08,11,10,32,17.20
2009,08,11,10,33,17.20
2009,08,11,10,34,17.20
2009,08,11,10,35,17.20
2009,08,11,10,36,17.30
2009,08,11,10,37,17.30
2009,08,11,10,38,17.30
2009,08,11,10,39,17.40
2009,08,11,10,40,17.40
2009,08,11,10,41,17.50
2009,08,11,10,42,17.60
2009,08,11,10,43,17.70
2009,08,11,10,44,17.70
2009,08,11,10,45,17.80
2009,08,11,10,46,17.80
2009,08,11,10,47,17.90
2009,08,11,10,48,17.90
2009,08,11,10,49,18.00
2009,08,11,10,50,18.00
2009,08,11,10,51,18.10
2009,08,11,10,52,18.20
2009,08,11,10,53,18.30
2009,08,11,10,54,18.40
2009,08,11,10,55,18.50
2009,08,11,10,56,18.60
2009,08,11,10,57,18.70
2009,08,11,10,58,18.80
2009,08,11,10,59,18.90
2009,08,11,11,00,19.00
2009,08,11,11,01,19.10
2009,08,11,11,02,19.10
2009,08,11,11,03,19.10
2009,08,11,11,04,19.20
2009,08,11,11,05,19.20
2009,08,11,11,06,19.20
2009,08,11,11,07,19.20
2009,08,11,11,08,19.30
2009,08,11,11,09,19.30
2009,08,11,11,10,19.30
2009,08,11,11,11,19.40
2009,08,11,11,12,19.40
2009,08,11,11,13,19.50
2009,08,11,11,14,19.60
2009,08,11,11,15,19.70
2009,08,11,11,16,19.80
2009,08,11,11,17,19.80
2009,08,11,11,18,19.90
2009,08,11,11,19,19.90
2009,08,11,11,20,20.00
2009,08,11,11,21,20.10
2009,08,11,11,22,20.20
2009,08,11,11,23,20.20
2009,08,11,11,24,20.30
2009,08,11,11,25,20.30
2009,08,11,11,26,20.40
2009,08,11,11,27,20.50
2009,08,11,11,28,20.60
2009,08,11,11,29,20.70
2009,08,11,11,30,20.70
2009,08,11,11,31,20.80
2009,08,11,11,32,20.90
2009,08,11,11,33,21.00
2009,08,11,11,34,21.00
2009,08,11,11,35,21.00
2009,08,11,11,36,21.00
2009,08,11,11,37,21.00
2009,08,11,11,38,21.00
2009,08,11,11,39,21.00
2009,08,11,11,40,21.00
2009,08,11,11,41,20.90
2009,08,11,11,42,20.90
2009,08,11,11,43,20.90
2009,08,11,11,44,20.90
2009,08,11,11,45,20.90
2009,08,11,11,46,20.80
2009,08,11,11,47,20.80
2009,08,11,11,48,20.70
2009,08,11,11,49,20.70
2009,08,11,11,50,20.70
2009,08,11,11,51,20.70
2009,08,11,11,52,20.70
2009,08,11,11,53,20.70
2009,08,11,11,54,20.70
2009,08,11,11,55,20.70
2009,08,11,11,56,20.70
2009,08,11,11,57,20.70
2009,08,11,11,58,20.80
2009,08,11,11,59,20.80
2009,08,11,12,00,20.80
2009,08,11,12,01,20.70
2009,08,11,12,02,20.70
2009,08,11,12,03,20.70
2009,08,11,12,04,20.80
2009,08,11,12,05,20.80
2009,08,11,12,06,20.80
2009,08,11,12,07,20.80
2009,08,11,12,08,20.90
2009,08,11,12,09,20.90
2009,08,11,12,10,20.90
2009,08,11,12,11,20.90
2009,08,11,12,12,20.90
2009,08,11,12,13,20.90
2009,08,11,12,14,20.80
2009,08,11,12,15,20.80
2009,08,11,12,16,20.80
2009,08,11,12,17,20.80
2009,08,11,12,18,20.80
2009,08,11,12,19,20.80
2009,08,11,12,20,20.80
2009,08,11,12,21,20.90
2009,08,11,12,22,20.90
2009,08,11,12,23,21.00
2009,08,11,12,24,21.00
2009,08,11,12,25,21.10
2009,08,11,12,26,21.20
2009,08,11,12,27,21.40
2009,08,11,12,28,21.50
2009,08,11,12,29,21.60
2009,08,11,12,30,21.60
2009,08,11,12,31,21.70
2009,08,11,12,32,21.80
2009,08,11,12,33,21.80
2009,08,11,12,34,21.80
2009,08,11,12,35,21.80
2009,08,11,12,36,21.80
2009,08,11,12,37,21.80
2009,08,11,12,38,21.80
2009,08,11,12,39,21.70
2009,08,11,12,40,21.70
2009,08,11,12,41,21.70
2009,08,11,12,42,21.70
2009,08,11,12,43,21.70
2009,08,11,12,44,21.70
2009,08,11,12,45,21.70
2009,08,11,12,46,21.60
2009,08,11,12,47,21.60
2009,08,11,12,48,21.50
2009,08,11,12,49,21.50
2009,08,11,12,50,21.40
2009,08,11,12,51,21.40
2009,08,11,12,52,21.30
2009,08,11,12,53,21.30
2009,08,11,12,54,21.20
2009,08,11,12,55,21.20
2009,08,11,12,56,21.20
2009,08,11,12,57,21.20
2009,08,11,12,58,21.20
2009,08,11,12,59,21.30
2009,08,11,13,00,21.30
2009,08,11,13,01,21.30
2009,08,11,13,02,21.30
2009,08,11,13,03,21.30
2009,08,11,13,04,21.30
2009,08,11,13,05,21.30
2009,08,11,13,06,21.30
2009,08,11,13,07,21.30
2009,08,11,13,08,21.30
2009,08,11,13,09,21.30
2009,08,11,13,10,21.30
2009,08,11,13,11,21.30
2009,08,11,13,12,21.30
2009,08,11,13,13,21.20
2009,08,11,13,14,21.10
2009,08,11,13,15,21.10
2009,08,11,13,16,21.00
2009,08,11,13,17,21.00
2009,08,11,13,18,20.90
2009,08,11,13,19,20.90
2009,08,11,13,20,20.80
2009,08,11,13,21,20.80
2009,08,11,13,22,20.80
2009,08,11,13,23,20.80
2009,08,11,13,24,20.80
2009,08,11,13,25,20.80
2009,08,11,13,26,20.80
2009,08,11,13,27,20.80
2009,08,11,13,28,20.80
2009,08,11,13,29,20.90
2009,08,11,13,30,21.10
2009,08,11,13,31,21.20
2009,08,11,13,32,21.30
2009,08,11,13,33,21.40
2009,08,11,13,34,21.50
2009,08,11,13,35,21.60
2009,08,11,13,36,21.60
2009,08,11,13,37,21.70
2009,08,11,13,38,21.70
2009,08,11,13,39,21.70
2009,08,11,13,40,21.70
2009,08,11,13,41,21.70
2009,08,11,13,42,21.70
2009,08,11,13,43,21.70
2009,08,11,13,44,21.70
2009,08,11,13,45,21.70
2009,08,11,13,46,21.80
2009,08,11,13,47,21.80
2009,08,11,13,48,21.80
2009,08,11,13,49,21.90
2009,08,11,13,50,21.90
2009,08,11,13,51,21.90
2009,08,11,13,52,21.90
2009,08,11,13,53,21.90
2009,08,11,13,54,22.00
2009,08,11,13,55,22.00
2009,08,11,13,56,22.00
2009,08,11,13,57,21.90
2009,08,11,13,58,21.90
2009,08,11,13,59,21.90
2009,08,11,14,00,21.80
2009,08,11,14,01,21.80
2009,08,11,14,02,21.80
2009,08,11,14,03,21.70
2009,08,11,14,04,21.60
2009,08,11,14,05,21.50
2009,08,11,14,06,21.40
2009,08,11,14,07,21.30
2009,08,11,14,08,21.20
2009,08,11,14,09,21.10
2009,08,11,14,10,21.10
2009,08,11,14,11,21.00
2009,08,11,14,12,21.00
2009,08,11,14,13,20.90
2009,08,11,14,14,20.80
2009,08,11,14,15,20.70
2009,08,11,14,16,20.70
2009,08,11,14,17,20.60
2009,08,11,14,18,20.50
2009,08,11,14,19,20.40
2009,08,11,14,20,20.30
2009,08,11,14,21,20.30
2009,08,11,14,22,20.20
2009,08,11,14,23,20.10
2009,08,11,14,24,20.10
2009,08,11,14,25,20.00
2009,08,11,14,26,20.00
2009,08,11,14,27,19.90
2009,08,11,14,28,19.90
2009,08,11,14,29,19.80
2009,08,11,14,30,19.80
2009,08,11,14,31,19.80
2009,08,11,14,32,19.80
2009,08,11,14,33,19.80
2009,08,11,14,34,19.70
2009,08,11,14,35,19.70
2009,08,11,14,36,19.70
2009,08,11,14,37,19.70
2009,08,11,14,38,19.60
2009,08,11,14,39,19.60
2009,08,11,14,40,19.60
2009,08,11,14,41,19.60
2009,08,11,14,42,19.60
2009,08,11,14,43,19.50
2009,08,11,14,44,19.50
2009,08,11,14,45,19.50
2009,08,11,14,46,19.40
2009,08,11,14,47,19.40
2009,08,11,14,48,19.40
2009,08,11,14,49,19.40
2009,08,11,14,50,19.40
2009,08,11,14,51,19.40
2009,08,11,14,52,19.40
2009,08,11,14,53,19.40
2009,08,11,14,54,19.40
2009,08,11,14,55,19.40
2009,08,11,14,56,19.40
2009,08,11,14,57,19.40
2009,08,11,14,58,19.50
2009,08,11,14,59,19.50
2009,08,11,15,00,19.50
2009,08,11,15,01,19.50
2009,08,11,15,02,19.50
2009,08,11,15,03,19.50
2009,08,11,15,04,19.60
2009,08,11,15,05,19.60
2009,08,11,15,06,19.60
2009,08,11,15,07,19.60
2009,08,11,15,08,19.60
2009,08,11,15,09,19.70
2009,08,11,15,10,19.70
2009,08,11,15,11,19.70
2009,08,11,15,12,19.80
2009,08,11,15,13,19.80
2009,08,11,15,14,19.90
2009,08,11,15,15,19.90
2009,08,11,15,16,20.00
2009,08,11,15,17,20.00
2009,08,11,15,18,20.10
2009,08,11,15,19,20.20
2009,08,11,15,20,20.20
2009,08,11,15,21,20.30
2009,08,11,15,22,20.30
2009,08,11,15,23,20.40
2009,08,11,15,24,20.50
2009,08,11,15,25,20.60
2009,08,11,15,26,20.60
2009,08,11,15,27,20.70
2009,08,11,15,28,20.80
2009,08,11,15,29,20.80
2009,08,11,15,30,20.90
2009,08,11,15,31,21.00
2009,08,11,15,32,21.00
2009,08,11,15,33,21.10
2009,08,11,15,34,21.10
2009,08,11,15,35,21.20
2009,08,11,15,36,21.20
2009,08,11,15,37,21.30
2009,08,11,15,38,21.30
2009,08,11,15,39,21.30
2009,08,11,15,40,21.30
2009,08,11,15,41,21.30
2009,08,11,15,42,21.30
2009,08,11,15,43,21.30
2009,08,11,15,44,21.30
2009,08,11,15,45,21.30
2009,08,11,15,46,21.30
2009,08,11,15,47,21.20
2009,08,11,15,48,21.20
2009,08,11,15,49,21.10
2009,08,11,15,50,21.10
2009,08,11,15,51,21.10
2009,08,11,15,52,21.10
2009,08,11,15,53,21.00
2009,08,11,15,54,21.00
2009,08,11,15,55,21.00
2009,08,11,15,56,21.00
2009,08,11,15,57,21.00
2009,08,11,15,58,21.00
2009,08,11,15,59,21.10
2009,08,11,16,00,21.00
2009,08,11,16,01,21.10
2009,08,11,16,02,21.10
2009,08,11,16,03,21.10
2009,08,11,16,04,21.10
2009,08,11,16,05,21.00
2009,08,11,16,06,21.00
2009,08,11,16,07,21.00
2009,08,11,16,08,21.00
2009,08,11,16,09,21.00
2009,08,11,16,10,21.00
2009,08,11,16,11,21.10
2009,08,11,16,12,21.10
2009,08,11,16,13,21.20
2009,08,11,16,14,21.20
2009,08,11,16,15,21.30
2009,08,11,16,16,21.40
2009,08,11,16,17,21.50
2009,08,11,16,18,21.60
2009,08,11,16,19,21.60
2009,08,11,16,20,21.60
2009,08,11,16,21,21.60
2009,08,11,16,22,21.60
2009,08,11,16,23,21.60
2009,08,11,16,24,21.60
2009,08,11,16,25,21.50
2009,08,11,16,26,21.50
2009,08,11,16,27,21.50
2009,08,11,16,28,21.40
2009,08,11,16,29,21.40
2009,08,11,16,30,21.40
2009,08,11,16,31,21.40
2009,08,11,16,32,21.40
2009,08,11,16,33,21.40
2009,08,11,16,34,21.40
2009,08,11,16,35,21.40
2009,08,11,16,36,21.50
2009,08,11,16,37,21.50
2009,08,11,16,38,21.60
2009,08,11,16,39,21.60
2009,08,11,16,40,21.60
2009,08,11,16,41,21.60
2009,08,11,16,42,21.60
2009,08,11,16,43,21.60
2009,08,11,16,44,21.70
2009,08,11,16,45,21.70
2009,08,11,16,46,21.70
2009,08,11,16,47,21.70
2009,08,11,16,48,21.70
2009,08,11,16,49,21.80
2009,08,11,16,50,21.70
2009,08,11,16,51,21.70
2009,08,11,16,52,21.70
2009,08,11,16,53,21.70
2009,08,11,16,54,21.70
2009,08,11,16,55,21.70
2009,08,11,16,56,21.70
2009,08,11,16,57,21.70
2009,08,11,16,58,21.70
2009,08,11,16,59,21.70
2009,08,11,17,00,21.60
2009,08,11,17,01,21.60
2009,08,11,17,02,21.60
2009,08,11,17,03,21.60
2009,08,11,17,04,21.50
2009,08,11,17,05,21.50
2009,08,11,17,06,21.50
2009,08,11,17,07,21.50
2009,08,11,17,08,21.40
2009,08,11,17,09,21.40
2009,08,11,17,10,21.40
2009,08,11,17,11,21.40
2009,08,11,17,12,21.40
2009,08,11,17,13,21.40
2009,08,11,17,14,21.40
2009,08,11,17,15,21.40
2009,08,11,17,16,21.40
2009,08,11,17,17,21.40
2009,08,11,17,18,21.40
2009,08,11,17,19,21.40